Location: Unspecified
(0.0000°N, 0.0000°E)
Time: 22:32:40
(UTC+02:00)

Daily predictions for brighter satellites

Satellite Brightness Start Highest point End
(mag) Time Altitude Azimuth Time Altitude Azimuth Time Altitude Azimuth
Maqsat-B 4.3 20:02:58 10° W 20:07:30 66° S 20:27:34 10° E
Cosmos 1763 Rocket 4.2 20:22:56 10° NNW 20:27:55 57° WSW 20:32:58 10° S
NOSS 3-2 (C) 4.3 20:24:30 10° SSE 20:28:59 22° ESE 20:33:24 10° ENE
Cosmos 1459 Rocket 3.9 20:23:04 10° N 20:29:06 82° E 20:35:10 10° S
Cosmos 1151 Rocket 4.4 20:28:39 10° NE 20:31:44 20° E 20:34:49 10° SE
Cosmos 1515 Rocket 4.3 20:32:40 10° NNE 20:36:38 33° E 20:40:39 10° SSE
Cosmos 1726 2.2 20:33:11 10° N 20:36:53 81° W 20:40:37 10° S
Meteor 2-2 Rocket 4.4 20:32:08 10° N 20:38:06 66° E 20:44:02 10° SSE
GPS 2-12 Rocket1 4.3 20:46:30 10° W 20:50:28 30° SSW 20:54:11 12° SE
XTE 2.8 20:47:46 10° WNW 20:50:39 76° SSW 20:52:40 18° ESE
Cosmos 1898 Rocket 4.5 20:47:58 10° SSE 20:52:09 24° ESE 20:56:20 10° NE
Mugunghwa Rocket 4.3 20:45:11 10° WSW 20:52:09 88° NNW 20:59:58 10° ENE
Cosmos 304 Rocket 4.0 20:47:49 10° NNW 20:52:34 75° WSW 20:57:21 10° S
OAO 3 Copernicus 4.5 20:49:00 10° WSW 20:54:01 76° NW 20:59:02 10° NE
FREGAT/IRIS 3.3 20:54:14 15° SE 20:56:22 33° E 20:59:07 10° NNE
ISS -3.2 21:00:25 10° SSW 21:03:24 33° SE 21:05:01 21° ENE
Cosmos 2285 Rocket 4.0 20:57:57 10° N 21:04:21 76° ENE 21:10:46 10° SSE
Cosmos 1400 Rocket 3.4 21:01:06 10° SSE 21:04:57 37° E 21:08:46 10° NNE
ARIANE 5 DEB (SYLDA) 2.3 21:03:43 10° W 21:05:51 84° S 21:09:07 19° E
Cosmos 2228 Rocket 3.8 21:06:21 10° NNW 21:10:40 56° W 21:15:00 10° S
ALOS 2.2 21:10:50 10° S 21:15:31 88° WSW 21:20:12 10° NNW
COSMOS 2406 3.5 21:10:13 10° N 21:15:38 45° ENE 21:18:43 24° SE
SWIFT 3.9 21:12:48 10° SSW 21:15:45 18° SSE 21:15:45 18° SSE
MAQSAT/ARIANE V 3.8 21:12:41 10° WNW 21:16:24 50° NNE 21:32:36 13° E
Resurs 01 Rocket 3.0 21:17:34 20° ENE 21:17:34 20° ENE 21:20:20 10° NNE
Meteor 2-12 Rocket 4.5 21:17:59 10° N 21:23:53 55° E 21:28:17 18° SSE
Cosmos 2298 Rocket 4.3 21:20:03 10° S 21:25:04 44° ESE 21:30:04 10° NNE
Cosmos 2150 Rocket 4.5 21:21:21 10° S 21:26:25 39° ESE 21:31:26 10° NE
Cosmos 1633 Rocket 2.9 21:23:22 10° S 21:27:43 84° E 21:32:05 10° N
Cosmos 1666 Rocket 4.1 21:29:03 10° SSW 21:33:27 60° W 21:37:46 10° N
GPS 2-18 Rocket1 4.2 21:33:25 10° W 21:37:05 34° SSW 21:37:25 34° S
Cosmos 1937 Rocket 3.4 21:32:54 10° S 21:37:58 55° ESE 21:42:57 10° NNE
In-Cosmos 22 Rocket 4.2 21:38:13 34° SSE 21:40:25 54° E 21:45:57 10° NNE
Tsikada Rocket 4.2 21:39:24 35° SE 21:41:34 49° E 21:47:34 10° NNE
GPS 2-14 Rocket1 4.5 21:38:42 10° NNW 21:41:56 22° NNE 21:42:13 22° NNE
Ariane 44P Rocket 3.1 21:31:49 10° W 21:42:02 53° N 21:42:54 42° NE
Sich 1 4.3 21:40:11 10° SSW 21:44:11 40° W 21:48:12 10° NNW
H-2A R/B 3.7 21:51:40 37° SW 21:52:37 45° W 21:56:22 10° NNW
CZ-3B DEB 4.0 21:45:29 10° N 21:55:25 42° ENE 21:57:44 38° E
Cosmos 1455 3.0 21:52:42 10° NNW 21:56:15 47° W 21:56:15 47° W
ARIANE 5 R/B 4.1 21:59:31 10° W 22:04:10 67° N 22:45:55 10° E
ARIANE 5 R/B 4.1 21:59:31 10° W 22:04:11 67° N 22:45:55 10° E
ARIANE 5 R/B 4.1 21:59:31 10° W 22:04:11 67° N 22:45:54 10° E
Spot 2 Rocket 3.8 22:08:54 59° N 22:08:54 59° N 22:13:00 10° N
ARIANE 5 R/B 4.5 22:08:26 10° W 22:08:30 11° W 22:08:30 11° W
Ariane H10-3 4.0 21:52:48 10° W 22:11:18 47° SSW 22:11:29 47° S
Cosmos 1538 Rocket 4.1 22:06:14 10° NNW 22:11:06 71° WNW 22:11:06 71° WNW
Ariane H10 4.1 21:27:39 10° W 22:21:44 82° N 22:24:20 55° ENE
ATLAS 2A CENTAUR R/B 4.3 22:21:41 10° WNW 22:29:46 85° NNE 22:36:30 51° ESE
COSMOS 2455 3.9 22:24:11 10° SSW 22:32:17 38° N 22:35:59 10° N
Cosmos 1464 Rocket 4.3 22:25:01 10° N 22:30:22 64° NNW 22:30:22 64° NNW
Centaur AC-64 4.4 21:45:28 10° WNW 22:36:17 81° NNE 22:37:04 75° ENE
Milstar 3 Cent rocket 4.3 22:49:45 10° WSW 22:52:57 25° SW 22:52:57 25° SW
CZ-3B DEB 4.5 23:34:08 10° NW 23:41:38 39° W 23:41:38 39° W
